TimeCST,TemperatureF,Dew PointF,Humidity,Sea Level PressureIn,VisibilityMPH,Wind Direction,Wind SpeedMPH,Gust SpeedMPH,PrecipitationIn,Events,Conditions,WindDirDegrees,DateUTC
12:53 AM,19.9,16.0,85,29.81,10.0,NNW,11.5,-,N/A,,Clear,330,2012-12-16 06:53:00
1:53 AM,19.9,16.0,85,29.83,10.0,NNW,10.4,-,N/A,,Clear,330,2012-12-16 07:53:00
2:53 AM,19.9,16.0,85,29.84,10.0,NNW,12.7,-,N/A,,Clear,330,2012-12-16 08:53:00
3:44 AM,19.4,15.8,86,29.79,9.0,North,12.7,-,N/A,,Mostly Cloudy,350,2012-12-16 09:44:00
3:53 AM,19.9,16.0,85,29.84,8.0,North,9.2,-,N/A,,Overcast,360,2012-12-16 09:53:00
5:05 AM,19.4,17.6,93,29.80,5.0,North,8.1,-,N/A,,Overcast,350,2012-12-16 11:05:00
5:53 AM,19.9,18.0,92,29.86,6.0,NNW,9.2,-,N/A,,Overcast,340,2012-12-16 11:53:00
6:53 AM,21.0,19.0,92,29.86,3.0,North,11.5,-,N/A,,Overcast,350,2012-12-16 12:53:00
7:05 AM,21.2,19.4,93,29.81,2.5,North,10.4,-,N/A,,Overcast,350,2012-12-16 13:05:00
7:53 AM,21.9,19.9,92,29.88,2.5,North,10.4,-,N/A,,Overcast,360,2012-12-16 13:53:00
8:00 AM,21.2,19.4,93,29.82,3.0,North,8.1,-,N/A,,Overcast,350,2012-12-16 14:00:00
8:11 AM,23.0,21.2,93,29.82,2.5,NNW,8.1,-,N/A,,Overcast,340,2012-12-16 14:11:00
8:26 AM,23.0,21.2,93,29.82,1.2,North,8.1,-,N/A,,Overcast,360,2012-12-16 14:26:00
8:49 AM,23.0,21.2,93,29.82,2.0,North,6.9,-,N/A,,Overcast,350,2012-12-16 14:49:00
8:53 AM,23.0,21.0,92,29.88,2.0,NNW,8.1,-,N/A,,Overcast,340,2012-12-16 14:53:00
9:13 AM,24.8,21.2,86,29.82,4.0,North,9.2,-,N/A,,Overcast,350,2012-12-16 15:13:00
9:53 AM,24.1,21.9,91,29.89,3.0,NNW,8.1,-,N/A,,Overcast,340,2012-12-16 15:53:00
10:36 AM,24.8,21.2,86,29.83,4.0,North,6.9,-,N/A,,Overcast,10,2012-12-16 16:36:00
10:53 AM,25.0,23.0,92,29.89,3.0,North,5.8,-,N/A,,Overcast,350,2012-12-16 16:53:00
11:53 AM,25.0,23.0,92,29.87,10.0,North,4.6,-,N/A,,Overcast,350,2012-12-16 17:53:00
12:53 PM,26.1,23.0,88,29.84,8.0,North,4.6,-,N/A,,Overcast,350,2012-12-16 18:53:00
1:53 PM,26.1,24.1,92,29.83,8.0,North,3.5,-,N/A,,Overcast,360,2012-12-16 19:53:00
2:22 PM,26.6,24.8,93,29.78,10.0,Calm,Calm,-,N/A,,Overcast,0,2012-12-16 20:22:00
2:53 PM,26.1,24.1,92,29.82,8.0,NNE,4.6,-,N/A,,Overcast,30,2012-12-16 20:53:00
3:53 PM,26.1,24.1,92,29.83,10.0,North,4.6,-,N/A,,Overcast,10,2012-12-16 21:53:00
4:53 PM,26.1,23.0,88,29.83,10.0,NE,4.6,-,N/A,,Overcast,40,2012-12-16 22:53:00
5:53 PM,25.0,23.0,92,29.84,9.0,ENE,4.6,-,N/A,,Overcast,60,2012-12-16 23:53:00
6:53 PM,25.0,23.0,92,29.84,10.0,ENE,3.5,-,N/A,,Overcast,60,2012-12-17 00:53:00
7:53 PM,26.1,23.0,88,29.85,10.0,ENE,3.5,-,N/A,,Overcast,70,2012-12-17 01:53:00
8:53 PM,26.1,23.0,88,29.84,10.0,Calm,Calm,-,N/A,,Overcast,0,2012-12-17 02:53:00
9:53 PM,27.0,24.1,89,29.84,10.0,Calm,Calm,-,N/A,,Overcast,0,2012-12-17 03:53:00
10:53 PM,26.1,24.1,92,29.83,10.0,ENE,4.6,-,N/A,,Overcast,60,2012-12-17 04:53:00
11:53 PM,27.0,25.0,92,29.82,9.0,East,5.8,-,N/A,,Overcast,100,2012-12-17 05:53:00